NOAA 16 DEB, 41360

Orbit data source: Space-Track

NOAA 16 DEB, 41360 is space debris in SSO originally from a launch on Thu, 21 Sep 2000 UTC launched from the Air Force Western Test Range (AFWTR). Debris objects in space refer to the collection of defunct objects orbiting the Earth. Examples of debris include non-operational satellites, rocket bodies, and fragments generated from explosions, collisions, or faulty payload assembly.

Loading next visibility...
Identifier
41360, 2000-055JD
Orbit
SSO
Country
Flag of USUS
Related business
Manufacturer
Unknown
Mission
Spacecraft
Bus & Motor
Unknown
Mass
Unknown
Launch date (UTC)
2000-09-21 (25 years ago)
Launch vehicle
Unknown
Launch site
Air Force Western Test Range (AFWTR)
Object type
Payload
Rocket body
Debris
Shape & HBR
Unknown shape, 0.1 m
Radar Cross Section
Small (<0.1 m²)

Expand to show TLE details & history
Last TLE update: 2 days ago

TLE from 2 days ago
0 NOAA 16 DEB
1 41360U 00055JD  26072.79851045  .00005627  00000-0  20937-2 0  9993
2 41360  98.8876 196.7086 0021411 283.8692  76.0109 14.32336146523574
Epoch: 2026-03-13T19:09Z
TLE epoch observation values (Epoch: 2026-03-13T19:09:51.302Z)
Latitude
-0.00003°
Longitude
97.81597°
Altitude
783.181 km
Speed
7.464 km/s
True Right ascension
13h 06m 50s
True Declination
0° 00' 00"
Sunlit
Object was in full shadow at epoch
Visualization orbit readout
Latitude
Unknown
Longitude
Unknown
Altitude
Unknown
Speed
Unknown
Apparent Right ascension
Unknown
Apparent Declination
Unknown
Sunlit
N/A
Visualization observer readout
Local Sidereal Time
12:34:15
Azimuth
Unknown
Elevation
Unknown
Doppler factor
Unknown
Orbital elements
Apogee altitude
796.412 km
Perigee altitude
765.755 km
Semi-major axis
7,159.22 km
Eccentricity
0.00214
Inclination
98.8876°
RAAN
196.7086°
Arg. of periapsis
283.8692°
True anomaly
76.24913°
Mean anomaly
76.0109°
Eccentric anomaly
76.13°
Mean motion
3.58298 °/min
Orbital period
100.47 mins
BSTAR
0.0020937
Loading maneuver chart data...
Computing Atmospheric mass density...
Loading historical data...
Loading historical data...
Loading historical data...
Loading historical data...
Loading historical data...
Loading historical data...
Loading historical data...

Documentation

Showing up to 5 results
|